Home   Weather   Arnsberg   Past weeks

Flag for Germany Past Weather in Arnsberg, North Rhine-Westphalia, Germany — Yesterday and Last 2 Weeks

Now
68 °F

Scattered clouds.


Feels Like: 68 °F
Forecast: 51 / 61 °F
Wind: 18 mph from Southwest

Location: Dortmund / Wickede

Current Time: Sep 29, 2016 at 7:13:47 PM

Latest Report: Sep 29, 2016 at 6:20 PM


Visibility: N/A

Pressure: 29.92 "Hg

Humidity: 53%

Dew Point: 50 °F

Location of ArnsbergLocation

Past Weather in Arnsberg — Graph

°F

Arnsberg Temperature Yesterday

Maximum temperature yesterday: 70 °F (at 4:20 PM)
Minimum temperature yesterday: 59 °F (at 5:20 AM)
Average temperature yesterday: 63 °F

High & Low Weather Summary for the Past Weeks

 TemperatureHumidityPressure
High86 °F (Sep 14, 5:20 PM)88% (Sep 16, 6:20 AM)30.30 "Hg (Sep 16, 6:20 AM)
Low45 °F (Sep 21, 6:20 AM)23% (Sep 15, 2:50 PM)29.80 "Hg (Sep 15, 3:50 PM)
Average63 °F59%30.10 "Hg
* Reported Sep 14 5:20 PM — Sep 29 5:50 PM, Arnsberg, Weather by CustomWeather, © 2016

Note: Actual official high and low records may vary slightly from our data, if they occured in-between our weather recording intervals... More about our weather records

Advertising

Arnsberg Weather History for the Previous 24 Hours

Scroll right to see more
 ConditionsComfort  
Time TempWeatherWind HumidityBarometerVisibility
5:50 PM
Thu, Sep 29
68 °FScattered clouds.14 mph53%29.92 "HgN/A
5:20 PM70 °FSunny.16 mph46%29.92 "Hg10 mi
4:50 PM72 °FSunny.21 mph44%29.92 "Hg10 mi
4:20 PM70 °FSunny.15 mph50%29.92 "Hg10 mi
3:50 PM70 °FPassing clouds.15 mph46%29.92 "HgN/A
3:20 PM72 °FSunny.20 mph47%29.92 "Hg10 mi
2:50 PM73 °FSunny.18 mph44%29.92 "Hg10 mi
2:20 PM73 °FSunny.21 mph44%29.95 "Hg10 mi
1:50 PM72 °FScattered clouds.23 mph47%29.95 "HgN/A
1:20 PM72 °FSunny.22 mph50%29.98 "Hg10 mi
12:50 PM70 °FSunny.23 mph53%29.98 "Hg10 mi
12:20 PM68 °FSunny.23 mph56%29.98 "Hg10 mi
11:50 AM68 °FSunny.20 mph56%30.01 "Hg10 mi
11:20 AM66 °FSunny.21 mph60%30.01 "Hg10 mi
10:50 AM64 °FPassing clouds.17 mph64%30.04 "HgN/A
10:20 AM64 °FSunny.18 mph64%30.04 "Hg10 mi
9:50 AM63 °FSunny.15 mph68%30.04 "Hg10 mi
9:20 AM63 °FSunny.13 mph68%30.04 "Hg10 mi
8:50 AM61 °FSunny.13 mph72%30.07 "Hg10 mi
8:20 AM61 °FSunny.13 mph72%30.07 "Hg10 mi
7:50 AM61 °FSunny.15 mph68%30.07 "Hg10 mi
7:20 AM61 °FClear.14 mph68%30.07 "Hg10 mi
6:50 AM61 °FClear.14 mph68%30.09 "Hg10 mi
6:20 AM61 °FClear.12 mph68%30.09 "Hg10 mi
5:50 AM61 °FClear.14 mph68%30.09 "Hg10 mi
5:20 AM61 °FClear.15 mph68%30.12 "Hg10 mi
9:50 PM
Wed, Sep 28
64 °FClear.13 mph60%30.21 "Hg10 mi
9:20 PM63 °FClear.13 mph64%30.21 "Hg10 mi
8:50 PM64 °FClear.12 mph60%30.21 "Hg10 mi
8:20 PM64 °FClear.10 mph56%30.21 "Hg10 mi
7:50 PM64 °FClear.14 mph56%30.21 "Hg10 mi
7:20 PM66 °FClear.12 mph52%30.21 "Hg10 mi
Weather by CustomWeather, © 2016

See weather overviewHow to use our weather pages